| time (UTC) | temp C | wind direction | speed KPH | gust KPH | rain 1hr cm | rain 24hr cm | rain mn cm | humidity % | barometer mb |
| 20260504100534 | 3 | 344 | 3.2 | 4.8 | 0.00 | 0.00 | 0.00 | 86 | 1016.1 |
| 20260504081551 | 7 | 349 | 0.0 | 3.2 | 0.00 | 0.00 | 0.00 | 77 | 1016.3 |
| 20260504081035 | 7 | 349 | 3.2 | 3.2 | 0.00 | 0.00 | 0.00 | 75 | 1016.3 |
| 20260504080537 | 7 | 1 | 0.0 | 1.6 | 0.00 | 0.00 | 0.00 | 76 | 1016.3 |
| 20260504050535 | 6 | 359 | 1.6 | 4.8 | 0.00 | 0.00 | 0.00 | 78 | 1017.0 |
| 20260504045534 | 7 | 12 | 3.2 | 8.0 | 0.00 | 0.00 | 0.00 | 76 | 1016.9 |
| 20260504045034 | 6 | 4 | 1.6 | 8.0 | 0.00 | 0.00 | 0.00 | 75 | 1016.9 |
| 20260504044547 | 6 | 354 | 3.2 | 8.0 | 0.00 | 0.00 | 0.00 | 75 | 1016.7 |
| 20260504044034 | 6 | 8 | 1.6 | 4.8 | 0.00 | 0.00 | 0.00 | 77 | 1016.7 |
| 20260504043534 | 6 | 360 | 3.2 | 4.8 | 0.00 | 0.00 | 0.00 | 76 | 1016.6 |
| 20260504043055 | 6 | 351 | 3.2 | 4.8 | 0.00 | 0.00 | 0.00 | 77 | 1016.6 |
| 20260504042534 | 6 | 346 | 3.2 | 4.8 | 0.00 | 0.00 | 0.00 | 78 | 1016.6 |
| 20260504042034 | 6 | 345 | 1.6 | 3.2 | 0.00 | 0.00 | 0.00 | 77 | 1016.5 |
| 20260504041546 | 6 | 12 | 1.6 | 3.2 | 0.00 | 0.00 | 0.00 | 77 | 1016.6 |
| 20260504041034 | 6 | 7 | 0.0 | 4.8 | 0.00 | 0.00 | 0.00 | 77 | 1016.5 |
| 20260504040535 | 6 | 352 | 1.6 | 4.8 | 0.00 | 0.00 | 0.00 | 75 | 1016.6 |
| 20260504040047 | 6 | 16 | 1.6 | 4.8 | 0.00 | 0.00 | 0.00 | 77 | 1016.6 |
| 20260504035533 | 6 | 348 | 1.6 | 8.0 | 0.00 | 0.00 | 0.00 | 77 | 1016.6 |
| 20260504035034 | 6 | 359 | 3.2 | 8.0 | 0.00 | 0.00 | 0.00 | 76 | 1016.5 |
| 20260504034547 | 6 | 2 | 4.8 | 9.7 | 0.00 | 0.00 | 0.00 | 74 | 1016.5 |
| 20260504034038 | 6 | 15 | 4.8 | 9.7 | 0.00 | 0.00 | 0.00 | 76 | 1016.6 |
| 20260504033534 | 6 | 351 | 4.8 | 9.7 | 0.00 | 0.00 | 0.00 | 77 | 1016.6 |
| 20260504033047 | 6 | 348 | 1.6 | 4.8 | 0.00 | 0.00 | 0.00 | 79 | 1016.8 |
| 20260504032535 | 6 | 354 | 3.2 | 4.8 | 0.00 | 0.00 | 0.00 | 78 | 1016.7 |
| 20260504032036 | 6 | 11 | 3.2 | 4.8 | 0.00 | 0.00 | 0.00 | 76 | 1016.6 |
| 20260504031542 | 6 | 11 | 1.6 | 3.2 | 0.00 | 0.00 | 0.00 | 76 | 1016.7 |
| 20260504031035 | 6 | 343 | 0.0 | 3.2 | 0.00 | 0.00 | 0.00 | 75 | 1016.7 |
| 20260504030534 | 6 | 0 | 0.0 | 4.8 | 0.00 | 0.00 | 0.00 | 75 | 1016.7 |
| 20260504030038 | 6 | 325 | 1.6 | 4.8 | 0.00 | 0.00 | 0.00 | 73 | 1016.8 |
| 20260504025534 | 6 | 340 | 0.0 | 3.2 | 0.00 | 0.00 | 0.00 | 75 | 1016.7 |
| 20260504025033 | 7 | 0 | 0.0 | 3.2 | 0.00 | 0.00 | 0.00 | 70 | 1017.0 |
| 20260504024547 | 7 | 0 | 0.0 | 1.6 | 0.00 | 0.00 | 0.00 | 71 | 1016.8 |
| 20260504024035 | 7 | 0 | 0.0 | 3.2 | 0.00 | 0.00 | 0.00 | 73 | 1016.8 |
| 20260504023535 | 7 | 274 | 0.0 | 3.2 | 0.00 | 0.00 | 0.00 | 73 | 1016.9 |
| 20260504023042 | 7 | 345 | 0.0 | 3.2 | 0.00 | 0.00 | 0.00 | 74 | 1016.7 |
| 20260504022535 | 7 | 0 | 0.0 | 3.2 | 0.00 | 0.00 | 0.00 | 73 | 1016.8 |
| 20260504022034 | 7 | 0 | 0.0 | 3.2 | 0.00 | 0.00 | 0.00 | 70 | 1016.6 |
| 20260504021541 | 7 | 306 | 0.0 | 3.2 | 0.00 | 0.00 | 0.00 | 69 | 1016.7 |
| 20260504021034 | 7 | 187 | 0.0 | 6.4 | 0.00 | 0.00 | 0.00 | 69 | 1016.7 |
| 20260504020534 | 7 | 352 | 0.0 | 6.4 | 0.00 | 0.00 | 0.00 | 69 | 1016.7 |
| 20260504020049 | 7 | 1 | 3.2 | 8.0 | 0.00 | 0.00 | 0.00 | 67 | 1016.7 |
| 20260504015534 | 6 | 11 | 3.2 | 8.0 | 0.00 | 0.00 | 0.00 | 68 | 1016.6 |
| 20260504015036 | 6 | 360 | 3.2 | 6.4 | 0.00 | 0.00 | 0.00 | 67 | 1016.6 |
| 20260504014540 | 6 | 15 | 3.2 | 6.4 | 0.00 | 0.00 | 0.00 | 70 | 1016.7 |
| 20260504014034 | 6 | 349 | 4.8 | 6.4 | 0.00 | 0.00 | 0.00 | 70 | 1016.7 |
| 20260504013535 | 6 | 360 | 3.2 | 6.4 | 0.00 | 0.00 | 0.00 | 69 | 1016.5 |
| 20260504013101 | 6 | 360 | 3.2 | 6.4 | 0.00 | 0.00 | 0.00 | 70 | 1016.4 |
| 20260504012534 | 6 | 346 | 4.8 | 8.0 | 0.00 | 0.00 | 0.00 | 69 | 1016.3 |
| 20260504012034 | 6 | 7 | 4.8 | 8.0 | 0.00 | 0.00 | 0.00 | 66 | 1016.1 |
| 20260504011542 | 6 | 1 | 4.8 | 8.0 | 0.00 | 0.00 | 0.00 | 66 | 1016.3 |
| 20260504011034 | 6 | 340 | 4.8 | 9.7 | 0.00 | 0.00 | 0.00 | 66 | 1016.3 |
| 20260504010533 | 6 | 352 | 4.8 | 9.7 | 0.00 | 0.00 | 0.00 | 68 | 1016.3 |
| 20260504010043 | 6 | 351 | 3.2 | 8.0 | 0.00 | 0.00 | 0.00 | 65 | 1016.2 |
| 20260504005534 | 7 | 345 | 3.2 | 8.0 | 0.00 | 0.00 | 0.00 | 63 | 1016.0 |
| 20260504005035 | 7 | 55 | 4.8 | 8.0 | 0.00 | 0.00 | 0.00 | 61 | 1015.9 |
| 20260504004540 | 7 | 353 | 4.8 | 6.4 | 0.00 | 0.00 | 0.00 | 61 | 1016.0 |
| 20260504004035 | 7 | 0 | 0.0 | 4.8 | 0.00 | 0.00 | 0.00 | 60 | 1016.1 |
| 20260504003535 | 7 | 286 | 3.2 | 6.4 | 0.00 | 0.00 | 0.00 | 58 | 1016.2 |
| 20260504003039 | 8 | 8 | 4.8 | 6.4 | 0.00 | 0.00 | 0.00 | 59 | 1016.0 |
| 20260504002534 | 8 | 345 | 3.2 | 4.8 | 0.00 | 0.00 | 0.00 | 58 | 1016.0 |
| 20260504002034 | 9 | 313 | 0.0 | 4.8 | 0.00 | 0.00 | 0.00 | 53 | 1016.0 |
| 20260504001540 | 9 | 293 | 1.6 | 4.8 | 0.00 | 0.00 | 0.00 | 52 | 1016.1 |
| 20260504001034 | 10 | 346 | 3.2 | 3.2 | 0.00 | 0.00 | 0.00 | 50 | 1016.0 |
| 20260504000533 | 10 | 305 | 0.0 | 4.8 | 0.00 | 0.00 | 0.00 | 50 | 1016.0 |
| 20260504000045 | 10 | 0 | 3.2 | 4.8 | 0.00 | 0.00 | 0.00 | 50 | 1016.0 |
| 20260503235534 | 11 | 359 | 3.2 | 4.8 | 0.00 | 0.00 | 0.00 | 45 | 1016.0 |
| 20260503235034 | 11 | 7 | 1.6 | 4.8 | 0.00 | 0.00 | 0.00 | 41 | 1016.0 |
| 20260503234541 | 12 | 63 | 1.6 | 4.8 | 0.00 | 0.00 | 0.00 | 40 | 1015.9 |
| 20260503234114 | 12 | 0 | 0.0 | 4.8 | 0.00 | 0.00 | 0.00 | 38 | 1015.9 |
| 20260503233533 | 13 | 243 | 1.6 | 4.8 | 0.00 | 0.00 | 0.00 | 40 | 1016.0 |
| 20260503233040 | 13 | 303 | 3.2 | 4.8 | 0.00 | 0.00 | 0.00 | 31 | 1016.0 |
| 20260503232533 | 14 | 343 | 0.0 | 6.4 | 0.00 | 0.00 | 0.00 | 34 | 1015.9 |
| 20260503232034 | 15 | 224 | 1.6 | 6.4 | 0.00 | 0.00 | 0.00 | 30 | 1015.8 |
| 20260503231538 | 15 | 159 | 3.2 | 6.4 | 0.00 | 0.00 | 0.00 | 29 | 1015.8 |
| 20260503231034 | 16 | 276 | 1.6 | 6.4 | 0.00 | 0.00 | 0.00 | 28 | 1015.8 |
| 20260503230534 | 16 | 0 | 0.0 | 3.2 | 0.00 | 0.00 | 0.00 | 27 | 1015.7 |
| 20260503230041 | 16 | 0 | 0.0 | 3.2 | 0.00 | 0.00 | 0.00 | 28 | 1015.6 |
| 20260503225534 | 16 | 172 | 1.6 | 9.7 | 0.00 | 0.00 | 0.00 | 27 | 1015.6 |
| 20260503225034 | 16 | 0 | 4.8 | 9.7 | 0.00 | 0.00 | 0.00 | 26 | 1015.6 |
| 20260503224543 | 17 | 179 | 0.0 | 1.6 | 0.00 | 0.00 | 0.00 | 26 | 1015.5 |
| 20260503224035 | 17 | 0 | 0.0 | 8.0 | 0.00 | 0.00 | 0.00 | 28 | 1015.5 |
| 20260503223535 | 16 | 0 | 0.0 | 16.1 | 0.00 | 0.00 | 0.00 | 27 | 1015.6 |
| 20260503223042 | 16 | 157 | 6.4 | 16.1 | 0.00 | 0.00 | 0.00 | 28 | 1015.5 |
| 20260503222534 | 16 | 176 | 1.6 | 6.4 | 0.00 | 0.00 | 0.00 | 24 | 1015.4 |
| 20260503222030 | 17 | 247 | 0.0 | 4.8 | 0.00 | 0.00 | 0.00 | 28 | 1015.7 |
| 20260503221551 | 16 | 0 | 1.6 | 17.7 | 0.00 | 0.00 | 0.00 | 26 | 1015.7 |
| 20260503221037 | 16 | 0 | 4.8 | 17.7 | 0.00 | 0.00 | 0.00 | 25 | 1015.8 |
| 20260503220531 | 16 | 234 | 4.8 | 16.1 | 0.00 | 0.00 | 0.00 | 25 | 1015.8 |
| 20260503220040 | 16 | 159 | 6.4 | 12.9 | 0.00 | 0.00 | 0.00 | 26 | 1015.8 |
| 20260503215535 | 16 | 233 | 6.4 | 12.9 | 0.00 | 0.00 | 0.00 | 26 | 1015.8 |
| 20260503215033 | 16 | 119 | 4.8 | 11.3 | 0.00 | 0.00 | 0.00 | 26 | 1015.7 |
| 20260503214541 | 16 | 160 | 1.6 | 11.3 | 0.00 | 0.00 | 0.00 | 27 | 1015.7 |
| 20260503214034 | 16 | 160 | 6.4 | 11.3 | 0.00 | 0.00 | 0.00 | 26 | 1015.8 |
| 20260503213535 | 16 | 278 | 3.2 | 16.1 | 0.00 | 0.00 | 0.00 | 25 | 1015.6 |
| 20260503213043 | 16 | 39 | 6.4 | 16.1 | 0.00 | 0.00 | 0.00 | 25 | 1015.6 |
| 20260503212534 | 16 | 262 | 1.6 | 9.7 | 0.00 | 0.00 | 0.00 | 27 | 1015.6 |
| 20260503212034 | 16 | 0 | 3.2 | 12.9 | 0.00 | 0.00 | 0.00 | 26 | 1015.5 |
| 20260503211542 | 16 | 319 | 3.2 | 12.9 | 0.00 | 0.00 | 0.00 | 25 | 1015.5 |
| 20260503211033 | 16 | 293 | 4.8 | 14.5 | 0.00 | 0.00 | 0.00 | 26 | 1015.7 |
| 20260503210534 | 16 | 0 | 3.2 | 14.5 | 0.00 | 0.00 | 0.00 | 27 | 1015.8 |
| 20260503210041 | 16 | 205 | 4.8 | 14.5 | 0.00 | 0.00 | 0.00 | 28 | 1015.8 |
| 20260503205535 | 16 | 333 | 4.8 | 19.3 | 0.00 | 0.00 | 0.00 | 27 | 1015.7 |
| 20260503205035 | 16 | 0 | 3.2 | 19.3 | 0.00 | 0.00 | 0.00 | 30 | 1015.8 |
| 20260503204603 | 16 | 319 | 6.4 | 14.5 | 0.00 | 0.00 | 0.00 | 27 | 1015.8 |
| 20260503204035 | 16 | 217 | 8.0 | 14.5 | 0.00 | 0.00 | 0.00 | 27 | 1015.6 |
| 20260503203536 | 16 | 119 | 4.8 | 11.3 | 0.00 | 0.00 | 0.00 | 30 | 1015.7 |
| 20260503203046 | 16 | 293 | 3.2 | 11.3 | 0.00 | 0.00 | 0.00 | 30 | 1015.8 |
| 20260503202537 | 16 | 162 | 6.4 | 11.3 | 0.00 | 0.00 | 0.00 | 26 | 1015.8 |
| 20260503202036 | 16 | 34 | 3.2 | 12.9 | 0.00 | 0.00 | 0.00 | 28 | 1015.9 |
| 20260503201545 | 16 | 350 | 1.6 | 12.9 | 0.00 | 0.00 | 0.00 | 30 | 1016.0 |
| 20260503201038 | 16 | 234 | 4.8 | 16.1 | 0.00 | 0.00 | 0.00 | 29 | 1016.1 |
| 20260503200536 | 16 | 305 | 6.4 | 16.1 | 0.00 | 0.00 | 0.00 | 28 | 1016.2 |
| 20260503200044 | 16 | 205 | 6.4 | 9.7 | 0.00 | 0.00 | 0.00 | 29 | 1016.3 |
| 20260503195536 | 15 | 261 | 4.8 | 19.3 | 0.00 | 0.00 | 0.00 | 28 | 1016.3 |
| 20260503195036 | 15 | 136 | 6.4 | 19.3 | 0.00 | 0.00 | 0.00 | 30 | 1016.4 |
| 20260503194549 | 15 | 354 | 3.2 | 12.9 | 0.00 | 0.00 | 0.00 | 29 | 1016.5 |
| 20260503194037 | 16 | 344 | 3.2 | 12.9 | 0.00 | 0.00 | 0.00 | 29 | 1016.6 |
| 20260503193536 | 15 | 10 | 4.8 | 12.9 | 0.00 | 0.00 | 0.00 | 28 | 1016.6 |
| 20260503193046 | 16 | 7 | 1.6 | 9.7 | 0.00 | 0.00 | 0.00 | 31 | 1016.5 |
| 20260503192536 | 16 | 329 | 0.0 | 11.3 | 0.00 | 0.00 | 0.00 | 34 | 1016.6 |
| 20260503192036 | 15 | 0 | 4.8 | 16.1 | 0.00 | 0.00 | 0.00 | 35 | 1016.5 |
| 20260503191606 | 15 | 295 | 4.8 | 16.1 | 0.00 | 0.00 | 0.00 | 33 | 1016.6 |
| 20260503191039 | 15 | 201 | 6.4 | 14.5 | 0.00 | 0.00 | 0.00 | 28 | 1016.7 |
| 20260503190537 | 15 | 144 | 6.4 | 16.1 | 0.00 | 0.00 | 0.00 | 32 | 1016.8 |
| 20260503190044 | 14 | 8 | 3.2 | 16.1 | 0.00 | 0.00 | 0.00 | 33 | 1017.0 |
| 20260503185536 | 14 | 346 | 6.4 | 22.5 | 0.00 | 0.00 | 0.00 | 32 | 1016.9 |
| 20260503185036 | 14 | 312 | 9.7 | 22.5 | 0.00 | 0.00 | 0.00 | 29 | 1016.8 |
| 20260503184544 | 14 | 355 | 11.3 | 24.1 | 0.00 | 0.00 | 0.00 | 29 | 1016.9 |
| 20260503184038 | 14 | 354 | 1.6 | 24.1 | 0.00 | 0.00 | 0.00 | 29 | 1017.1 |
| 20260503183535 | 14 | 267 | 9.7 | 24.1 | 0.00 | 0.00 | 0.00 | 30 | 1017.2 |
| 20260503183049 | 14 | 199 | 8.0 | 20.9 | 0.00 | 0.00 | 0.00 | 29 | 1017.3 |
| 20260503182536 | 14 | 280 | 6.4 | 22.5 | 0.00 | 0.00 | 0.00 | 33 | 1017.4 |
| 20260503182035 | 14 | 260 | 8.0 | 22.5 | 0.00 | 0.00 | 0.00 | 34 | 1017.5 |
| 20260503181550 | 14 | 172 | 6.4 | 14.5 | 0.00 | 0.00 | 0.00 | 33 | 1017.2 |
| 20260503181035 | 14 | 117 | 4.8 | 11.3 | 0.00 | 0.00 | 0.00 | 33 | 1017.2 |
| 20260503180535 | 14 | 221 | 4.8 | 11.3 | 0.00 | 0.00 | 0.00 | 33 | 1017.3 |
| 20260503180056 | 13 | 129 | 6.4 | 12.9 | 0.00 | 0.00 | 0.00 | 28 | 1017.3 |
| 20260503175535 | 13 | 118 | 3.2 | 16.1 | 0.00 | 0.00 | 0.00 | 31 | 1017.4 |
| 20260503175035 | 13 | 293 | 4.8 | 16.1 | 0.00 | 0.00 | 0.00 | 33 | 1017.7 |
| 20260503174551 | 13 | 250 | 3.2 | 11.3 | 0.00 | 0.00 | 0.00 | 32 | 1017.5 |
| 20260503174036 | 13 | 121 | 4.8 | 19.3 | 0.00 | 0.00 | 0.00 | 31 | 1017.5 |
| 20260503173536 | 13 | 13 | 4.8 | 19.3 | 0.00 | 0.00 | 0.00 | 35 | 1017.7 |
| 20260503173127 | 13 | 311 | 3.2 | 16.1 | 0.00 | 0.00 | 0.00 | 34 | 1017.7 |
| 20260503172535 | 13 | 172 | 9.7 | 16.1 | 0.00 | 0.00 | 0.00 | 35 | 1017.7 |
| 20260503172036 | 13 | 153 | 3.2 | 14.5 | 0.00 | 0.00 | 0.00 | 33 | 1017.7 |
| 20260503171552 | 13 | 288 | 4.8 | 19.3 | 0.00 | 0.00 | 0.00 | 33 | 1017.7 |
| 20260503171036 | 13 | 20 | 8.0 | 19.3 | 0.00 | 0.00 | 0.00 | 35 | 1017.7 |
| 20260503170536 | 12 | 272 | 4.8 | 19.3 | 0.00 | 0.00 | 0.00 | 34 | 1017.7 |
| 20260503150536 | 10 | 336 | 1.6 | 11.3 | 0.00 | 0.00 | 0.00 | 45 | 1019.0 |
| 20260503131035 | 7 | 65 | 8.0 | 19.3 | 0.00 | 0.00 | 0.00 | 48 | 1018.7 |
| 20260503130535 | 7 | 4 | 4.8 | 19.3 | 0.00 | 0.00 | 0.00 | 48 | 1018.8 |
| 20260503110535 | 3 | 0 | 0.0 | 9.7 | 0.00 | 0.00 | 0.00 | 64 | 1017.7 |